Location: Lecco
(45.8566°N, 9.3977°E)
Time: 04:56:17
(UTC+02:00)

Transit 4A - Pass Details

Date: 16 August 2020
Orbit: 863 x 982 km, 66.8° (Epoch: 23 September)

Event Time Altitude Azimuth Distance (km) Brightness Sun altitude
Rises 15:34:12 0° 328° (NNW) 3,635 10.9 47.9°
Reaches altitude 10° 15:37:38 10° 346° (NNW) 2,707 10.3 47.5°
Maximum altitude 15:41:56 19° 29° (NNE) 2,165 9.6 46.9°
Drops below altitude 10° 15:46:16 10° 72° (ENE) 2,733 10.1 46.3°
Sets 15:49:44 0° 91° (E) 3,683 10.7 45.8°
